This is the latest recevied weather packets stored in our database for station/object KE4AMH. If no packets are shown the sender has not sent any weather packets the latest 10 day(s).
| Time | Temp. | Humidity | Pressure | Rain* | Wind** | Luminosity | Snow |
|---|---|---|---|---|---|---|---|
| 1777564550 | 20.56° C | 78% | 1011 hPa | 0 mm | - | 319 W/m² | - |
| 1777564246 | 20.56° C | 81% | 1011 hPa | 0 mm | - | 309 W/m² | - |
| 1777563942 | 20.56° C | 83% | 1011.1 hPa | 0 mm | - | 345 W/m² | - |
| 1777563639 | 20° C | 83% | 1011.1 hPa | 0 mm | - | 225 W/m² | - |
| 1777563338 | 20.56° C | 82% | 1011.3 hPa | 0 mm | - | 212 W/m² | - |
| 1777563035 | 20° C | 83% | 1011.4 hPa | 0 mm | - | 494 W/m² | - |
| 1777562730 | 20° C | 84% | 1011.1 hPa | 0 mm | - | 317 W/m² | - |
| 1777562430 | 20° C | 85% | 1011.2 hPa | 0 mm | - | 379 W/m² | - |
| 1777562126 | 20.56° C | 87% | 1011 hPa | 0 mm | - | 314 W/m² | - |
| 1777561824 | 19.44° C | 87% | 1011.4 hPa | 0 mm | - | 373 W/m² | - |
| 1777561520 | 19.44° C | 90% | 1011 hPa | 0 mm | - | 264 W/m² | - |
| 1777561215 | 18.89° C | 90% | 1010.9 hPa | 0 mm | - | 248 W/m² | - |
| 1777560909 | 18.89° C | 91% | 1011.3 hPa | 0 mm | - | 218 W/m² | - |
| 1777560607 | 18.89° C | 93% | 1011 hPa | 0 mm | - | 186 W/m² | - |
| 1777560304 | 18.33° C | 95% | 1011.2 hPa | 0 mm | - | 215 W/m² | - |
| 1777560002 | 17.78° C | 96% | 1011.3 hPa | 0 mm | - | 180 W/m² | - |
| 1777559696 | 17.78° C | 97% | 1011.5 hPa | 0 mm | - | 132 W/m² | - |
| 1777559394 | 17.78° C | 98% | 1011.1 hPa | 0 mm | - | 204 W/m² | - |
| 1777559090 | 17.78° C | 99% | 1011.4 hPa | 0 mm | - | 199 W/m² | - |
| 1777558786 | 17.78° C | 99% | 1011.3 hPa | 0 mm | - | 265 W/m² | - |
| 1777558482 | 17.22° C | 99% | 1011.1 hPa | 0 mm | - | 152 W/m² | - |
| 1777558178 | 17.22° C | 99% | 1010.9 hPa | 0 mm | - | 92 W/m² | - |
| 1777557874 | 17.22° C | 99% | 1010.6 hPa | 0 mm | - | 108 W/m² | - |
| 1777557572 | 17.22° C | 99% | 1010.5 hPa | 0 mm | - | 111 W/m² | - |
| 1777557268 | 17.78° C | 99% | 1010.4 hPa | 0 mm | - | 235 W/m² | - |
* Rain latest hour (hover to see other rain measurements)
** Current wind speed in m/s (hover to see current wind gust speed)